Regional Weather Roundup
Issued by NWS

Home | Current Version | Previous Version | Graphics & Text | Print | Product List | Glossary On
Versions: 1 2 3 4 5 6 7 8 9 10 11 12 13 14 15 16 17 18 19 20 21 22 23 24 25 26 27 28 29 30 31 32 33 34 35 36 37 38 39 40 41 42 43 44 45 46 47 48 49 50
000
ASUS43 KLMK 281102
RWRKY
KENTUCKY REGIONAL WEATHER ROUNDUP
NATIONAL WEATHER SERVICE LOUISVILLE KY
700 AM EDT TUE JUL 28 2015

NOTE "FAIR" INDICATES FEW OR NO CLOUDS BELOW 12,000 FEET
WITH NO SIGNIFICANT WEATHER AND/OR OBSTRUCTIONS TO VISIBILITY.

KYZ001>023-026-027-061>063-070>075-281200-
WESTERN AND SOUTH CENTRAL KENTUCKY

CITY           SKY/WX    TMP DP  RH WIND       PRES   REMARKS
PADUCAH        MOCLDY    77  74  90 CALM      29.95R
HENDERSON      MOCLDY    73  70  88 S3        29.95R
OWENSBORO      PTCLDY    73  72  97 SW6       29.98R FOG
HOPKINSVILLE   PTCLDY    74  73  94 NE2       29.97R
BOWLING GREEN  MOCLDY    76  72  87 CALM      29.99R
GLASGOW        NOT AVBL
$$

KYZ024-025-028>034-038-045-046-053-281200-
NORTH CENTRAL KENTUCKY

CITY           SKY/WX    TMP DP  RH WIND       PRES   REMARKS
LOUISVILLE/SDF CLOUDY    79  74  84 CALM      29.97R HAZE
LOUISVILLE/LOU CLOUDY    78  74  87 CALM      29.98R
FORT KNOX      MOCLDY    74  73  95 NW1       29.97S FOG
$$

KYZ035>037-039>044-047>052-055>060-089>105-281200-
NORTHEAST KENTUCKY

CITY           SKY/WX    TMP DP  RH WIND       PRES   REMARKS
LEXINGTON      PTCLDY    72  70  93 SE3       30.00R FOG
COVINGTON      MOCLDY    74  71  91 SE5       30.00R FOG
FRANKFORT      PTCLDY    72  69  90 CALM      29.99R
$$

KYZ054-064>069-076>088-106>120-281200-
SOUTHEAST KENTUCKY

CITY           SKY/WX    TMP DP  RH WIND       PRES   REMARKS
JACKSON        FOG       72  70  93 CALM      30.03R VSB<1/4
LONDON         MOCLDY    71  67  87 CALM      30.03R FOG
SOMERSET       NOT AVBL
MIDDLESBORO    FOG       70  70 100 CALM      30.05R VSB 1/2
MONTICELLO     FOG       71  71 100 CALM      30.04R VSB 1/4
$$



USA.gov is the U.S. government's official web portal to all federal, state and local government web resources and services.